TimeMDT,TemperatureF,Dew PointF,Humidity,Sea Level PressureIn,VisibilityMPH,Wind Direction,Wind SpeedMPH,Gust SpeedMPH,PrecipitationIn,Events,Conditions,WindDirDegrees,DateUTC
12:14 AM,48.2,41.0,76,30.68,10.0,WSW,4.6,-,N/A,,Overcast,240,2013-08-23 06:14:00
12:34 AM,46.4,42.8,87,30.68,10.0,South,5.8,-,N/A,,Overcast,180,2013-08-23 06:34:00
12:54 AM,48.2,41.0,76,30.68,10.0,SSW,4.6,-,N/A,,Overcast,200,2013-08-23 06:54:00
1:14 AM,50.0,42.8,76,30.67,10.0,South,10.4,-,N/A,Thunderstorm,Overcast,180,2013-08-23 07:14:00
1:34 AM,48.2,42.8,82,30.67,10.0,SSE,12.7,-,N/A,,Overcast,160,2013-08-23 07:34:00
1:54 AM,50.0,42.8,76,30.67,10.0,South,13.8,-,N/A,,Mostly Cloudy,170,2013-08-23 07:54:00
2:14 AM,50.0,42.8,76,30.65,10.0,South,18.4,-,N/A,,Scattered Clouds,180,2013-08-23 08:14:00
2:34 AM,50.0,42.8,76,30.64,10.0,South,17.3,-,N/A,,Scattered Clouds,170,2013-08-23 08:34:00
2:54 AM,48.2,41.0,76,30.64,10.0,South,17.3,-,N/A,Thunderstorm,Scattered Clouds,170,2013-08-23 08:54:00
3:14 AM,48.2,41.0,76,30.64,10.0,South,15.0,-,N/A,,Clear,170,2013-08-23 09:14:00
3:34 AM,50.0,41.0,71,30.64,10.0,South,19.6,-,N/A,,Clear,180,2013-08-23 09:34:00
3:54 AM,51.8,42.8,71,30.62,10.0,South,23.0,-,N/A,,Clear,170,2013-08-23 09:54:00
4:14 AM,51.8,42.8,71,30.63,10.0,South,21.9,-,N/A,,Clear,180,2013-08-23 10:14:00
4:34 AM,51.8,42.8,71,30.62,10.0,South,23.0,-,N/A,,Clear,170,2013-08-23 10:34:00
4:54 AM,51.8,42.8,71,30.62,10.0,South,19.6,-,N/A,,Clear,180,2013-08-23 10:54:00
5:14 AM,51.8,42.8,71,30.62,10.0,South,20.7,-,N/A,,Clear,180,2013-08-23 11:14:00
5:34 AM,51.8,41.0,67,30.62,10.0,South,18.4,-,N/A,,Clear,180,2013-08-23 11:34:00
5:54 AM,51.8,42.8,71,30.62,10.0,South,20.7,-,N/A,,Clear,180,2013-08-23 11:54:00
6:14 AM,51.8,41.0,67,30.62,10.0,South,19.6,-,N/A,,Clear,180,2013-08-23 12:14:00
6:34 AM,51.8,41.0,67,30.62,10.0,South,16.1,23.0,N/A,,Clear,180,2013-08-23 12:34:00
6:54 AM,51.8,37.4,58,30.62,10.0,SW,6.9,16.1,N/A,,Clear,220,2013-08-23 12:54:00
7:14 AM,53.6,39.2,58,30.62,10.0,SSW,9.2,-,N/A,,Clear,210,2013-08-23 13:14:00
7:34 AM,53.6,41.0,62,30.62,10.0,SSW,5.8,-,N/A,,Clear,210,2013-08-23 13:34:00
7:54 AM,53.6,39.2,58,30.62,10.0,SW,4.6,-,N/A,,Clear,220,2013-08-23 13:54:00
8:14 AM,53.6,37.4,54,30.63,10.0,SSW,5.8,-,N/A,,Clear,200,2013-08-23 14:14:00
8:34 AM,53.6,37.4,54,30.63,10.0,West,11.5,-,N/A,,Clear,270,2013-08-23 14:34:00
8:54 AM,53.6,37.4,54,30.63,10.0,WSW,6.9,-,N/A,,Clear,240,2013-08-23 14:54:00
9:14 AM,55.4,41.0,58,30.64,10.0,West,8.1,-,N/A,,Clear,260,2013-08-23 15:14:00
9:34 AM,55.4,41.0,58,30.64,10.0,West,5.8,-,N/A,,Scattered Clouds,270,2013-08-23 15:34:00
9:54 AM,55.4,41.0,58,30.64,10.0,West,8.1,-,N/A,,Mostly Cloudy,270,2013-08-23 15:54:00
10:14 AM,57.2,41.0,55,30.64,10.0,WSW,6.9,-,N/A,,Scattered Clouds,250,2013-08-23 16:14:00
10:34 AM,59.0,42.8,55,30.64,10.0,WSW,8.1,-,N/A,,Clear,250,2013-08-23 16:34:00
10:54 AM,59.0,41.0,51,30.64,10.0,WSW,10.4,17.3,N/A,,Clear,240,2013-08-23 16:54:00
11:14 AM,59.0,37.4,45,30.64,10.0,West,9.2,-,N/A,,Scattered Clouds,280,2013-08-23 17:14:00
11:34 AM,59.0,37.4,45,30.64,10.0,WSW,4.6,16.1,N/A,,Scattered Clouds,250,2013-08-23 17:34:00
11:54 AM,64.4,39.2,40,30.64,10.0,SSW,5.8,-,N/A,,Scattered Clouds,210,2013-08-23 17:54:00
12:14 PM,64.4,41.0,42,30.64,10.0,WSW,6.9,-,N/A,,Clear,240,2013-08-23 18:14:00
12:34 PM,64.4,37.4,37,30.63,10.0,South,9.2,18.4,N/A,,Scattered Clouds,190,2013-08-23 18:34:00
12:54 PM,64.4,37.4,37,30.62,10.0,West,6.9,-,N/A,,Scattered Clouds,280,2013-08-23 18:54:00
1:14 PM,64.4,37.4,37,30.62,10.0,WSW,5.8,-,N/A,,Mostly Cloudy,240,2013-08-23 19:14:00
1:34 PM,64.4,37.4,37,30.61,10.0,West,11.5,-,N/A,,Overcast,270,2013-08-23 19:34:00
1:54 PM,64.4,37.4,37,30.60,10.0,SW,5.8,-,N/A,Thunderstorm,Thunderstorm,230,2013-08-23 19:54:00
2:14 PM,64.4,37.4,37,30.59,10.0,West,10.4,18.4,N/A,Thunderstorm,Scattered Clouds,260,2013-08-23 20:14:00
2:34 PM,64.4,35.6,34,30.58,10.0,West,10.4,23.0,N/A,,Mostly Cloudy,270,2013-08-23 20:34:00
2:54 PM,64.4,41.0,42,30.57,10.0,East,9.2,-,N/A,Thunderstorm,Mostly Cloudy,80,2013-08-23 20:54:00
3:14 PM,60.8,42.8,52,30.56,10.0,SSE,4.6,-,N/A,Thunderstorm,Thunderstorm,150,2013-08-23 21:14:00
3:34 PM,60.8,41.0,48,30.56,10.0,SSE,8.1,17.3,N/A,Thunderstorm,Thunderstorm,150,2013-08-23 21:34:00
3:54 PM,59.0,42.8,55,30.56,10.0,East,6.9,-,0.01,Rain-Thunderstorm,Light Thunderstorms and Rain,90,2013-08-23 21:54:00
4:14 PM,59.0,37.4,45,30.55,10.0,SSE,28.8,35.7,N/A,Thunderstorm,Thunderstorm,150,2013-08-23 22:14:00
4:34 PM,53.6,35.6,51,30.56,10.0,SSE,21.9,39.1,N/A,Rain-Thunderstorm,Light Thunderstorms and Rain,160,2013-08-23 22:34:00
4:54 PM,57.2,33.8,41,30.57,10.0,South,21.9,26.5,N/A,Thunderstorm,Mostly Cloudy,180,2013-08-23 22:54:00
5:14 PM,59.0,32.0,36,30.57,10.0,South,17.3,24.2,N/A,Thunderstorm,Mostly Cloudy,170,2013-08-23 23:14:00
5:34 PM,59.0,32.0,36,30.56,10.0,South,16.1,21.9,N/A,,Scattered Clouds,180,2013-08-23 23:34:00
5:54 PM,59.0,32.0,36,30.56,10.0,South,18.4,24.2,N/A,Thunderstorm,Clear,180,2013-08-23 23:54:00
6:14 PM,59.0,32.0,36,30.55,10.0,South,18.4,-,N/A,,Clear,180,2013-08-24 00:14:00
6:34 PM,59.0,32.0,36,30.55,10.0,South,18.4,24.2,N/A,,Clear,180,2013-08-24 00:34:00
6:54 PM,59.0,41.0,51,30.54,10.0,West,25.3,-,N/A,,Clear,280,2013-08-24 00:54:00
7:14 PM,53.6,41.0,62,30.55,10.0,West,12.7,18.4,N/A,,Clear,260,2013-08-24 01:14:00
7:34 PM,53.6,42.8,67,30.55,10.0,West,19.6,-,N/A,Thunderstorm,Mostly Cloudy,270,2013-08-24 01:34:00
7:54 PM,50.0,41.0,71,30.56,10.0,West,15.0,20.7,N/A,,Mostly Cloudy,260,2013-08-24 01:54:00
8:14 PM,51.8,41.0,67,30.57,10.0,West,15.0,-,N/A,Thunderstorm,Overcast,260,2013-08-24 02:14:00
8:34 PM,53.6,42.8,67,30.57,10.0,West,9.2,-,N/A,,Overcast,260,2013-08-24 02:34:00
8:54 PM,53.6,39.2,58,30.57,10.0,West,10.4,-,N/A,Thunderstorm,Mostly Cloudy,270,2013-08-24 02:54:00
9:14 PM,53.6,41.0,62,30.58,10.0,West,13.8,-,N/A,Thunderstorm,Mostly Cloudy,270,2013-08-24 03:14:00
9:34 PM,51.8,42.8,71,30.59,10.0,West,12.7,-,N/A,Thunderstorm,Thunderstorm,270,2013-08-24 03:34:00
9:54 PM,48.2,41.0,76,30.59,10.0,West,10.4,-,N/A,,Mostly Cloudy,280,2013-08-24 03:54:00
10:14 PM,48.2,41.0,76,30.59,10.0,West,16.1,-,N/A,,Mostly Cloudy,270,2013-08-24 04:14:00
10:34 PM,46.4,41.0,81,30.59,10.0,West,10.4,-,N/A,Thunderstorm,Scattered Clouds,280,2013-08-24 04:34:00
10:54 PM,46.4,37.4,71,30.59,10.0,West,12.7,-,N/A,,Clear,270,2013-08-24 04:54:00
11:14 PM,46.4,39.2,76,30.58,10.0,West,13.8,-,N/A,,Scattered Clouds,280,2013-08-24 05:14:00
11:34 PM,46.4,37.4,71,30.58,10.0,West,11.5,-,N/A,,Clear,280,2013-08-24 05:34:00
11:54 PM,46.4,39.2,76,30.57,10.0,West,6.9,-,N/A,,Clear,270,2013-08-24 05:54:00